Weather History for KVIH - April, 2014

Change the Weather History Date:

Friday, April 11, 2014

  Actual Average Record
Temperature  
Mean Temperature 61 °F 54 °F  
Max Temperature 73 °F 66 °F 84 °F (1903)
Min Temperature 49 °F 42 °F 28 °F (1952)
Degree Days  
Heating Degree Days 4 12  
Month to date heating degree days 141 145  
Since 1 July heating degree days 5198 4549  
Cooling Degree Days 0 1  
Month to date cooling degree days 2 5  
Year to date cooling degree days 2 9  
Growing Degree Days 12 (Base 50)    
Moisture  
Dew Point 37 °F    
Average Humidity 48    
Maximum Humidity 69    
Minimum Humidity 27    
Precipitation  
Precipitation 0.00 in 0.14 in 4.07 in (1994)
Month to date precipitation 1.75 1.44  
Year to date precipitation 3.92 8.99  
Sea Level Pressure  
Sea Level Pressure 30.00 in    
Wind  
Wind Speed 8 mph (East)    
Max Wind Speed 16 mph    
Max Gust Speed 20 mph    
Visibility 10 miles    
Events      
T = Trace of Precipitation, MM = Missing Value Source: NWS Daily Summary

Daily Weather History Graph

Daily Weather History Graph

Search for Another Location

Airport or City:

Trip Planner

Search our weather history database for the weather conditions in past years. The results will help you decide how hot, cold, wet, or windy it might be!

Date:

Astronomy

Apr. 11, 2014 Rise Set
Actual Time 6:37 AM CDT 7:39 PM CDT
Civil Twilight 6:10 AM CDT 8:06 PM CDT
Nautical Twilight 5:38 AM CDT 8:38 PM CDT
Astronomical Twilight 5:04 AM CDT 9:12 PM CDT
Moon 4:23 PM CDT (4/11) 4:29 AM CDT (4/11)
Length of Visible Light 13h 56m
Length of Day
13h 02m
Waxing Gibbous, 87% of the Moon is Illuminated
Apr 11
Waxing Gibbous
Apr 15
Full
Apr 22
Last Quarter
Apr 29
New
May 6
First Quarter

Hourly Weather History & Observations

Time (CDT) Temp. Dew Point Humidity Pressure Visibility Wind Dir Wind Speed Gust Speed Precip Events Conditions
12:53 AM 51.1 °F 39.0 °F 63% 29.95 in 10.0 mi NNE 6.9 mph - N/A   Partly Cloudy
1:53 AM 50.0 °F 37.0 °F 61% 29.95 in 10.0 mi NNE 5.8 mph - N/A   Partly Cloudy
2:53 AM 51.1 °F 37.9 °F 61% 29.96 in 10.0 mi NNE 6.9 mph - N/A   Mostly Cloudy
3:53 AM 51.1 °F 37.9 °F 61% 29.97 in 10.0 mi NNE 6.9 mph - N/A   Mostly Cloudy
4:53 AM 50.0 °F 36.0 °F 59% 29.99 in 10.0 mi NE 6.9 mph - N/A   Mostly Cloudy
5:53 AM 52.0 °F 33.1 °F 49% 30.01 in 10.0 mi ENE 9.2 mph - N/A   Overcast
6:53 AM 51.1 °F 32.0 °F 48% 30.03 in 10.0 mi ENE 8.1 mph - N/A   Scattered Clouds
7:53 AM 55.0 °F 32.0 °F 42% 30.05 in 10.0 mi East 9.2 mph - N/A   Clear
8:53 AM 55.9 °F 32.0 °F 40% 30.06 in 10.0 mi East 11.5 mph - N/A   Clear
9:53 AM 60.1 °F 32.0 °F 35% 30.05 in 10.0 mi ESE 15.0 mph - N/A   Clear
10:53 AM 62.1 °F 30.9 °F 31% 30.06 in 10.0 mi East 10.4 mph - N/A   Clear
11:53 AM 63.0 °F 32.0 °F 31% 30.07 in 10.0 mi SE 6.9 mph - N/A   Clear
12:53 PM 64.9 °F 34.0 °F 32% 30.07 in 10.0 mi East 8.1 mph - N/A   Clear
1:53 PM 68.0 °F 35.1 °F 30% 30.05 in 10.0 mi East 8.1 mph - N/A   Clear
2:53 PM 70.0 °F 37.9 °F 31% 30.00 in 10.0 mi ESE 4.6 mph - N/A   Clear
3:53 PM 72.0 °F 39.9 °F 31% 29.97 in 10.0 mi East 9.2 mph - N/A   Clear
4:53 PM 73.0 °F 37.0 °F 27% 29.97 in 10.0 mi SSE 3.5 mph - N/A   Clear
5:53 PM 73.0 °F 39.0 °F 29% 29.96 in 10.0 mi East 5.8 mph - N/A   Clear
6:53 PM 70.0 °F 43.0 °F 38% 29.95 in 10.0 mi ESE 6.9 mph - N/A   Clear
7:53 PM 62.1 °F 41.0 °F 46% 29.95 in 10.0 mi East 4.6 mph - N/A   Clear
8:53 PM 57.0 °F 41.0 °F 55% 29.97 in 10.0 mi East 6.9 mph - N/A   Clear
9:53 PM 60.1 °F 41.0 °F 49% 29.98 in 10.0 mi ESE 10.4 mph - N/A   Clear
10:53 PM 61.0 °F 44.1 °F 54% 29.96 in 10.0 mi SE 9.2 mph - N/A   Clear
11:53 PM 60.1 °F 50.0 °F 69% 29.96 in 10.0 mi SSE 6.9 mph - N/A   Clear